Time,TemperatureF,DewpointF,PressureIn,WindDirection,WindDirectionDegrees,WindSpeedMPH,WindSpeedGustMPH,Humidity,HourlyPrecipIn,Conditions,Clouds,dailyrainin,SolarRadiationWatts/m^2,SoftwareType,DateUTC
2013-01-22 14:50:00,18.2,-1.5,30.35,SW,225,5.0,7.0,41,0.00,,,0.00,503,WeatherCatV1.12B45,2013-01-22 19:50:00,
2013-01-22 14:55:00,18.2,-1.5,30.35,West,260,4.0,9.0,41,0.00,,,0.00,492,WeatherCatV1.12B45,2013-01-22 19:55:00,
2013-01-22 15:00:00,18.3,-0.9,30.35,WSW,244,0.0,7.0,42,0.00,,,0.00,459,WeatherCatV1.12B45,2013-01-22 20:00:00,
2013-01-22 15:01:00,18.5,-0.7,30.35,WSW,258,3.0,6.0,42,0.00,,,0.00,475,WeatherCatV1.12B45,2013-01-22 20:01:00,
2013-01-22 15:06:00,18.9,-0.9,30.35,WNW,298,12.0,14.0,41,0.00,,,0.00,468,WeatherCatV1.12B45,2013-01-22 20:06:00,
2013-01-22 15:11:00,18.7,-1.0,30.36,WSW,239,8.0,9.0,41,0.00,,,0.00,410,WeatherCatV1.12B45,2013-01-22 20:11:00,
2013-01-22 15:16:00,18.5,-1.8,30.36,SW,225,5.0,11.0,40,0.00,,,0.00,392,WeatherCatV1.12B45,2013-01-22 20:16:00,
2013-01-22 15:21:00,18.5,-1.2,30.36,WSW,256,5.0,6.0,41,0.00,,,0.00,272,WeatherCatV1.12B45,2013-01-22 20:21:00,
2013-01-22 15:26:00,18.5,-1.2,30.36,WSW,237,8.0,12.0,41,0.00,,,0.00,399,WeatherCatV1.12B45,2013-01-22 20:26:00,
2013-01-22 15:31:00,18.5,-1.2,30.36,WSW,257,11.0,12.0,41,0.00,,,0.00,287,WeatherCatV1.12B45,2013-01-22 20:31:00,
2013-01-22 15:36:00,18.4,-1.3,30.36,WNW,291,6.0,10.0,41,0.00,,,0.00,362,WeatherCatV1.12B45,2013-01-22 20:36:00,
2013-01-22 15:41:00,18.5,-1.2,30.37,West,273,11.0,13.0,41,0.00,,,0.00,346,WeatherCatV1.12B45,2013-01-22 20:41:00,
2013-01-22 15:46:00,18.5,-1.2,30.37,WSW,250,6.0,7.0,41,0.00,,,0.00,290,WeatherCatV1.12B45,2013-01-22 20:46:00,
2013-01-22 15:51:00,18.6,-1.1,30.36,SW,234,4.0,9.0,41,0.00,,,0.00,279,WeatherCatV1.12B45,2013-01-22 20:51:00,
2013-01-22 15:56:00,18.6,-1.7,30.36,WSW,242,8.0,8.0,40,0.00,,,0.00,330,WeatherCatV1.12B45,2013-01-22 20:56:00,
2013-01-22 16:01:00,18.6,-1.7,30.36,WNW,291,6.0,8.0,40,0.00,,,0.00,258,WeatherCatV1.12B45,2013-01-22 21:01:00,
2013-01-22 16:06:00,18.8,-1.5,30.37,WSW,246,9.0,10.0,40,0.00,,,0.00,246,WeatherCatV1.12B45,2013-01-22 21:06:00,
2013-01-22 16:11:00,18.5,-1.2,30.36,West,273,4.0,9.0,41,0.00,,,0.00,163,WeatherCatV1.12B45,2013-01-22 21:11:00,
2013-01-22 16:16:00,18.4,-1.3,30.36,West,264,4.0,9.0,41,0.00,,,0.00,79,WeatherCatV1.12B45,2013-01-22 21:16:00,
2013-01-22 16:21:00,18.4,-0.8,30.36,WSW,250,4.0,8.0,42,0.00,,,0.00,123,WeatherCatV1.12B45,2013-01-22 21:21:00,
2013-01-22 16:26:00,18.4,-1.3,30.36,WSW,249,7.0,12.0,41,0.00,,,0.00,70,WeatherCatV1.12B45,2013-01-22 21:26:00,
2013-01-22 16:31:00,18.3,-1.9,30.36,WSW,249,9.0,9.0,40,0.00,,,0.00,118,WeatherCatV1.12B45,2013-01-22 21:31:00,
2013-01-22 16:36:00,18.2,-1.5,30.37,SW,234,7.0,9.0,41,0.00,,,0.00,160,WeatherCatV1.12B45,2013-01-22 21:36:00,
2013-01-22 16:42:00,18.2,-1.5,30.37,West,265,9.0,12.0,41,0.00,,,0.00,105,WeatherCatV1.12B45,2013-01-22 21:42:00,
2013-01-22 16:47:00,18.2,-1.5,30.36,WSW,247,7.0,10.0,41,0.00,,,0.00,74,WeatherCatV1.12B45,2013-01-22 21:47:00,
2013-01-22 16:52:00,18.1,-1.6,30.36,West,273,2.0,6.0,41,0.00,,,0.00,54,WeatherCatV1.12B45,2013-01-22 21:52:00,
2013-01-22 16:57:00,18.2,-1.0,30.36,WSW,251,5.0,6.0,42,0.00,,,0.00,69,WeatherCatV1.12B45,2013-01-22 21:57:00,
2013-01-22 17:02:00,18.1,-1.6,30.36,WNW,290,9.0,12.0,41,0.00,,,0.00,26,WeatherCatV1.12B45,2013-01-22 22:02:00,
2013-01-22 17:07:00,18.0,-1.7,30.36,WSW,248,2.0,9.0,41,0.00,,,0.00,30,WeatherCatV1.12B45,2013-01-22 22:07:00,
2013-01-22 17:12:00,17.9,-1.3,30.36,WNW,290,3.0,8.0,42,0.00,,,0.00,37,WeatherCatV1.12B45,2013-01-22 22:12:00,
2013-01-22 17:17:00,17.9,-1.3,30.36,WSW,256,4.0,7.0,42,0.00,,,0.00,21,WeatherCatV1.12B45,2013-01-22 22:17:00,
2013-01-22 17:22:00,17.9,-1.3,30.36,WSW,242,7.0,11.0,42,0.00,,,0.00,21,WeatherCatV1.12B45,2013-01-22 22:22:00,
2013-01-22 17:27:00,17.7,-1.4,30.36,WSW,241,1.0,7.0,42,0.00,,,0.00,16,WeatherCatV1.12B45,2013-01-22 22:27:00,
2013-01-22 17:32:00,17.6,-1.5,30.36,WSW,251,4.0,7.0,42,0.00,,,0.00,11,WeatherCatV1.12B45,2013-01-22 22:32:00,
2013-01-22 17:37:00,17.5,-1.1,30.36,SSW,210,3.0,10.0,43,0.00,,,0.00,9,WeatherCatV1.12B45,2013-01-22 22:37:00,
2013-01-22 17:42:00,17.3,-1.3,30.36,SW,231,1.0,7.0,43,0.00,,,0.00,7,WeatherCatV1.12B45,2013-01-22 22:42:00,
2013-01-22 17:47:00,17.1,-0.5,30.36,SW,229,5.0,6.0,45,0.00,,,0.00,5,WeatherCatV1.12B45,2013-01-22 22:47:00,
2013-01-22 17:52:00,17.0,-0.6,30.36,WSW,252,5.0,9.0,45,0.00,,,0.00,0,WeatherCatV1.12B45,2013-01-22 22:52:00,
2013-01-22 17:57:00,16.8,-0.8,30.36,SW,229,5.0,9.0,45,0.00,,,0.00,0,WeatherCatV1.12B45,2013-01-22 22:57:00,
2013-01-22 18:02:00,16.7,-0.9,30.36,WSW,249,4.0,9.0,45,0.00,,,0.00,0,WeatherCatV1.12B45,2013-01-22 23:02:00,
2013-01-22 18:07:00,16.7,-0.4,30.36,WSW,244,3.0,7.0,46,0.00,,,0.00,0,WeatherCatV1.12B45,2013-01-22 23:07:00,
2013-01-22 18:12:00,16.6,-0.5,30.36,WSW,254,4.0,6.0,46,0.00,,,0.00,0,WeatherCatV1.12B45,2013-01-22 23:12:00,
2013-01-22 18:17:00,16.6,-0.5,30.35,WSW,240,7.0,10.0,46,0.00,,,0.00,0,WeatherCatV1.12B45,2013-01-22 23:17:00,
2013-01-22 18:22:00,16.5,-1.1,30.35,SW,236,6.0,9.0,45,0.00,,,0.00,0,WeatherCatV1.12B45,2013-01-22 23:22:00,
2013-01-22 18:27:00,16.4,-0.7,30.36,SW,230,4.0,6.0,46,0.00,,,0.00,0,WeatherCatV1.12B45,2013-01-22 23:27:00,
2013-01-22 18:32:00,16.4,-0.3,30.36,WSW,257,3.0,9.0,47,0.00,,,0.00,0,WeatherCatV1.12B45,2013-01-22 23:32:00,
2013-01-22 18:37:00,16.4,-0.3,30.37,WSW,254,4.0,6.0,47,0.00,,,0.00,0,WeatherCatV1.12B45,2013-01-22 23:37:00,
2013-01-22 18:42:00,16.4,-0.7,30.37,WSW,250,6.0,9.0,46,0.00,,,0.00,0,WeatherCatV1.12B45,2013-01-22 23:42:00,
2013-01-22 18:47:00,16.4,-0.7,30.37,WSW,244,7.0,7.0,46,0.00,,,0.00,0,WeatherCatV1.12B45,2013-01-22 23:47:00,
2013-01-22 18:52:00,16.4,-0.7,30.37,WSW,244,6.0,8.0,46,0.00,,,0.00,0,WeatherCatV1.12B45,2013-01-22 23:52:00,
2013-01-22 18:57:00,16.3,-0.8,30.37,WSW,258,6.0,8.0,46,0.00,,,0.00,0,WeatherCatV1.12B45,2013-01-22 23:57:00,
2013-01-22 19:02:00,16.3,-0.8,30.37,WSW,247,5.0,9.0,46,0.00,,,0.00,0,WeatherCatV1.12B45,2013-01-23 00:02:00,
2013-01-22 19:07:00,16.3,-0.4,30.37,SW,219,3.0,5.0,47,0.00,,,0.00,0,WeatherCatV1.12B45,2013-01-23 00:07:00,
2013-01-22 19:12:00,16.3,-0.4,30.37,WSW,244,3.0,5.0,47,0.00,,,0.00,0,WeatherCatV1.12B45,2013-01-23 00:12:00,
2013-01-22 19:17:00,16.3,-0.4,30.36,SW,230,4.0,6.0,47,0.00,,,0.00,0,WeatherCatV1.12B45,2013-01-23 00:17:00,
2013-01-22 19:22:00,16.3,-0.4,30.37,WSW,256,9.0,9.0,47,0.00,,,0.00,0,WeatherCatV1.12B45,2013-01-23 00:22:00,
2013-01-22 19:27:00,16.3,-0.4,30.37,WSW,245,5.0,8.0,47,0.00,,,0.00,0,WeatherCatV1.12B45,2013-01-23 00:27:00,
2013-01-22 19:32:00,16.3,0.1,30.36,WSW,252,6.0,7.0,48,0.00,,,0.00,0,WeatherCatV1.12B45,2013-01-23 00:32:00,
2013-01-22 19:37:00,16.3,0.1,30.37,West,269,4.0,7.0,48,0.00,,,0.00,0,WeatherCatV1.12B45,2013-01-23 00:37:00,
2013-01-22 19:42:00,16.3,0.1,30.37,WSW,253,4.0,8.0,48,0.00,,,0.00,0,WeatherCatV1.12B45,2013-01-23 00:42:00,
2013-01-22 19:47:00,16.3,0.5,30.37,WSW,239,3.0,5.0,49,0.00,,,0.00,0,WeatherCatV1.12B45,2013-01-23 00:47:00,
2013-01-22 19:52:00,16.3,0.5,30.37,WSW,243,4.0,4.0,49,0.00,,,0.00,0,WeatherCatV1.12B45,2013-01-23 00:52:00,
2013-01-22 19:57:00,16.3,0.5,30.37,WSW,254,4.0,7.0,49,0.00,,,0.00,0,WeatherCatV1.12B45,2013-01-23 00:57:00,
2013-01-22 20:02:00,16.3,0.5,30.36,WSW,252,3.0,8.0,49,0.00,,,0.00,0,WeatherCatV1.12B45,2013-01-23 01:02:00,
2013-01-22 20:07:00,16.3,0.1,30.36,WSW,248,3.0,9.0,48,0.00,,,0.00,0,WeatherCatV1.12B45,2013-01-23 01:07:00,
2013-01-22 20:12:00,16.2,0.4,30.37,WSW,254,2.0,6.0,49,0.00,,,0.00,0,WeatherCatV1.12B45,2013-01-23 01:12:00,
2013-01-22 20:17:00,16.2,0.0,30.37,WSW,246,5.0,8.0,48,0.00,,,0.00,0,WeatherCatV1.12B45,2013-01-23 01:17:00,
2013-01-22 20:22:00,16.2,0.0,30.37,WSW,244,3.0,7.0,48,0.00,,,0.00,0,WeatherCatV1.12B45,2013-01-23 01:22:00,
2013-01-22 20:27:00,16.2,0.0,30.37,West,266,6.0,7.0,48,0.00,,,0.00,0,WeatherCatV1.12B45,2013-01-23 01:27:00,
2013-01-22 20:32:00,16.2,0.4,30.36,West,260,3.0,6.0,49,0.00,,,0.00,0,WeatherCatV1.12B45,2013-01-23 01:32:00,
2013-01-22 20:37:00,16.2,0.4,30.36,WSW,246,4.0,8.0,49,0.00,,,0.00,0,WeatherCatV1.12B45,2013-01-23 01:37:00,
2013-01-22 20:42:00,16.2,0.0,30.36,WSW,257,6.0,10.0,48,0.00,,,0.00,0,WeatherCatV1.12B45,2013-01-23 01:42:00,
2013-01-22 20:47:00,16.2,0.4,30.36,WSW,256,3.0,5.0,49,0.00,,,0.00,0,WeatherCatV1.12B45,2013-01-23 01:47:00,
2013-01-22 20:52:00,16.2,0.4,30.36,WSW,248,10.0,11.0,49,0.00,,,0.00,0,WeatherCatV1.12B45,2013-01-23 01:52:00,
2013-01-22 20:57:00,16.2,0.4,30.36,WSW,242,5.0,7.0,49,0.00,,,0.00,0,WeatherCatV1.12B45,2013-01-23 01:57:00,
2013-01-22 21:02:00,16.2,0.4,30.36,SW,219,3.0,4.0,49,0.00,,,0.00,0,WeatherCatV1.12B45,2013-01-23 02:02:00,
2013-01-22 21:07:00,16.3,0.5,30.35,WSW,249,4.0,11.0,49,0.00,,,0.00,0,WeatherCatV1.12B45,2013-01-23 02:07:00,
2013-01-22 21:12:00,16.3,0.5,30.35,WSW,254,2.0,7.0,49,0.00,,,0.00,0,WeatherCatV1.12B45,2013-01-23 02:12:00,
2013-01-22 21:17:00,16.3,0.5,30.36,SW,235,7.0,8.0,49,0.00,,,0.00,0,WeatherCatV1.12B45,2013-01-23 02:17:00,
2013-01-22 21:22:00,16.3,0.5,30.36,SW,233,7.0,8.0,49,0.00,,,0.00,0,WeatherCatV1.12B45,2013-01-23 02:22:00,
2013-01-22 21:27:00,16.3,0.5,30.36,West,262,6.0,8.0,49,0.00,,,0.00,0,WeatherCatV1.12B45,2013-01-23 02:27:00,
2013-01-22 21:32:00,16.2,0.9,30.36,WSW,247,4.0,7.0,50,0.00,,,0.00,0,WeatherCatV1.12B45,2013-01-23 02:32:00,
2013-01-22 21:37:00,16.3,0.5,30.36,WSW,257,5.0,13.0,49,0.00,,,0.00,0,WeatherCatV1.12B45,2013-01-23 02:37:00,
2013-01-22 21:42:00,16.2,0.4,30.36,SW,217,5.0,11.0,49,0.00,,,0.00,0,WeatherCatV1.12B45,2013-01-23 02:42:00,
2013-01-22 21:47:00,16.2,0.9,30.36,West,277,3.0,7.0,50,0.00,,,0.00,0,WeatherCatV1.12B45,2013-01-23 02:47:00,
2013-01-22 21:52:00,16.2,0.9,30.36,WSW,237,3.0,7.0,50,0.00,,,0.00,0,WeatherCatV1.12B45,2013-01-23 02:52:00,
2013-01-22 21:57:00,16.2,0.9,30.36,WSW,252,4.0,7.0,50,0.00,,,0.00,0,WeatherCatV1.12B45,2013-01-23 02:57:00,
2013-01-22 22:02:00,16.2,1.3,30.36,WSW,246,6.0,6.0,51,0.00,,,0.00,0,WeatherCatV1.12B45,2013-01-23 03:02:00,
2013-01-22 22:07:00,16.2,0.9,30.37,SW,234,6.0,11.0,50,0.00,,,0.00,0,WeatherCatV1.12B45,2013-01-23 03:07:00,
2013-01-22 22:12:00,16.2,0.9,30.37,WSW,251,6.0,8.0,50,0.00,,,0.00,0,WeatherCatV1.12B45,2013-01-23 03:12:00,
2013-01-22 22:17:00,16.2,1.3,30.37,WSW,254,2.0,8.0,51,0.00,,,0.00,0,WeatherCatV1.12B45,2013-01-23 03:17:00,
2013-01-22 22:22:00,16.2,1.3,30.37,WSW,249,3.0,7.0,51,0.00,,,0.00,0,WeatherCatV1.12B45,2013-01-23 03:22:00,
2013-01-22 22:27:00,16.2,0.9,30.37,SW,233,5.0,12.0,50,0.00,,,0.00,0,WeatherCatV1.12B45,2013-01-23 03:27:00,
2013-01-22 22:32:00,16.1,1.2,30.37,WSW,244,5.0,10.0,51,0.00,,,0.00,0,WeatherCatV1.12B45,2013-01-23 03:32:00,
2013-01-22 22:37:00,16.1,1.2,30.37,WSW,250,5.0,8.0,51,0.00,,,0.00,0,WeatherCatV1.12B45,2013-01-23 03:37:00,
2013-01-22 22:42:00,16.1,1.2,30.37,West,262,3.0,7.0,51,0.00,,,0.00,0,WeatherCatV1.12B45,2013-01-23 03:42:00,
2013-01-22 22:47:00,16.1,1.2,30.37,WSW,252,3.0,9.0,51,0.00,,,0.00,0,WeatherCatV1.12B45,2013-01-23 03:47:00,
2013-01-22 22:52:00,16.0,1.1,30.37,WSW,255,4.0,8.0,51,0.00,,,0.00,0,WeatherCatV1.12B45,2013-01-23 03:52:00,
2013-01-22 22:57:00,16.0,1.1,30.37,SW,227,6.0,7.0,51,0.00,,,0.00,0,WeatherCatV1.12B45,2013-01-23 03:57:00,
2013-01-22 23:02:00,16.0,1.5,30.37,WSW,248,5.0,8.0,52,0.00,,,0.00,0,WeatherCatV1.12B45,2013-01-23 04:02:00,
2013-01-22 23:07:00,16.1,1.6,30.37,WSW,249,4.0,8.0,52,0.00,,,0.00,0,WeatherCatV1.12B45,2013-01-23 04:07:00,
2013-01-22 23:12:00,16.0,1.5,30.37,West,279,3.0,7.0,52,0.00,,,0.00,0,WeatherCatV1.12B45,2013-01-23 04:12:00,
2013-01-22 23:17:00,16.1,1.6,30.37,West,266,5.0,5.0,52,0.00,,,0.00,0,WeatherCatV1.12B45,2013-01-23 04:17:00,
2013-01-22 23:22:00,16.1,1.6,30.37,SW,232,3.0,5.0,52,0.00,,,0.00,0,WeatherCatV1.12B45,2013-01-23 04:22:00,
2013-01-22 23:27:00,16.0,1.5,30.37,WSW,243,3.0,6.0,52,0.00,,,0.00,0,WeatherCatV1.12B45,2013-01-23 04:27:00,
2013-01-22 23:32:00,16.0,1.5,30.37,WSW,237,7.0,8.0,52,0.00,,,0.00,0,WeatherCatV1.12B45,2013-01-23 04:32:00,
2013-01-22 23:37:00,16.0,1.5,30.38,WSW,242,6.0,7.0,52,0.00,,,0.00,0,WeatherCatV1.12B45,2013-01-23 04:37:00,
2013-01-22 23:42:00,15.9,1.4,30.38,WNW,284,3.0,5.0,52,0.00,,,0.00,0,WeatherCatV1.12B45,2013-01-23 04:42:00,
2013-01-22 23:47:00,15.9,1.8,30.38,West,281,5.0,6.0,53,0.00,,,0.00,0,WeatherCatV1.12B45,2013-01-23 04:47:00,
2013-01-22 23:52:00,15.9,1.8,30.38,WSW,255,3.0,6.0,53,0.00,,,0.00,0,WeatherCatV1.12B45,2013-01-23 04:52:00,
2013-01-22 23:57:00,15.9,1.8,30.38,WSW,242,9.0,9.0,53,0.00,,,0.00,0,WeatherCatV1.12B45,2013-01-23 04:57:00,